contact:dominique.lefevre@mio.osupytheas.fr, maurice.libes@osupytheas.fr, didier.mallarino@osupytheas.fr
Project:EMSO http://www.emso-fr.org/EMSO-France
Depth: 2436.0 m
Title:EMSO Ligure Ouest : Data MII capteur MICROCAT
DateTime_Computer,Latitude,Longitude,Temperature,Conductivity,Pressure,DateTime_Instrument
DateTime_Computer,Latitude,Longitude,degC,S m-1,dbar,DateTime_Instrument
2022-07-03T00:01:42Z,42.805,6.029,13.3021,4.60095,2470.646,2022-7-03T02:03:27Z
2022-07-03T00:04:45Z,42.805,6.029,13.3015,4.60079,2470.646,2022-7-03T02:06:30Z
2022-07-03T00:07:48Z,42.805,6.029,13.3025,4.60081,2470.646,2022-7-03T02:09:34Z
2022-07-03T00:10:52Z,42.805,6.029,13.3029,4.60068,2470.67,2022-7-03T02:12:37Z
2022-07-03T00:13:55Z,42.805,6.029,13.3021,4.60059,2470.693,2022-7-03T02:15:40Z
2022-07-03T00:16:58Z,42.805,6.029,13.3017,4.60083,2470.684,2022-7-03T02:18:43Z
2022-07-03T00:20:01Z,42.805,6.029,13.3028,4.60072,2470.646,2022-7-03T02:21:46Z
2022-07-03T00:23:04Z,42.805,6.029,13.3029,4.60084,2470.684,2022-7-03T02:24:49Z
2022-07-03T00:26:07Z,42.805,6.029,13.3036,4.60069,2470.646,2022-7-03T02:27:52Z
2022-07-03T00:29:10Z,42.805,6.029,13.3026,4.60075,2470.646,2022-7-03T02:30:55Z
2022-07-03T00:32:13Z,42.805,6.029,13.3028,4.60064,2470.67,2022-7-03T02:33:58Z
2022-07-03T00:35:16Z,42.805,6.029,13.3021,4.60076,2470.684,2022-7-03T02:37:02Z
2022-07-03T00:38:20Z,42.805,6.029,13.3021,4.60067,2470.646,2022-7-03T02:40:05Z
2022-07-03T00:41:23Z,42.805,6.029,13.3016,4.60059,2470.684,2022-7-03T02:43:08Z
2022-07-03T00:44:26Z,42.805,6.029,13.3021,4.60093,2470.661,2022-7-03T02:46:11Z
2022-07-03T00:47:29Z,42.805,6.029,13.3019,4.60093,2470.661,2022-7-03T02:49:14Z
2022-07-03T00:50:32Z,42.805,6.029,13.3031,4.60089,2470.661,2022-7-03T02:52:17Z
2022-07-03T00:53:35Z,42.805,6.029,13.3019,4.60093,2470.624,2022-7-03T02:55:20Z
2022-07-03T00:56:38Z,42.805,6.029,13.3019,4.60083,2470.624,2022-7-03T02:58:23Z
2022-07-03T00:59:41Z,42.805,6.029,13.3015,4.60081,2470.661,2022-7-03T03:01:27Z
2022-07-03T01:02:45Z,42.805,6.029,13.3030,4.60081,2470.661,2022-7-03T03:04:30Z
2022-07-03T01:05:48Z,42.805,6.029,13.3036,4.60078,2470.624,2022-7-03T03:07:33Z
2022-07-03T01:08:51Z,42.805,6.029,13.3028,4.60065,2470.646,2022-7-03T03:10:36Z
2022-07-03T01:11:54Z,42.805,6.029,13.3031,4.60062,2470.624,2022-7-03T03:13:39Z
2022-07-03T01:14:57Z,42.805,6.029,13.3028,4.60068,2470.637,2022-7-03T03:16:42Z
2022-07-03T01:18:00Z,42.805,6.029,13.3025,4.60086,2470.661,2022-7-03T03:19:45Z
2022-07-03T01:21:03Z,42.805,6.029,13.3034,4.60070,2470.646,2022-7-03T03:22:48Z
2022-07-03T01:24:06Z,42.805,6.029,13.3023,4.60067,2470.646,2022-7-03T03:25:51Z
2022-07-03T01:27:09Z,42.805,6.029,13.3021,4.60075,2470.646,2022-7-03T03:28:55Z
2022-07-03T01:30:13Z,42.805,6.029,13.3028,4.60072,2470.624,2022-7-03T03:31:58Z
2022-07-03T01:33:16Z,42.805,6.029,13.3015,4.60074,2470.637,2022-7-03T03:35:01Z
2022-07-03T01:36:19Z,42.805,6.029,13.3028,4.60080,2470.6,2022-7-03T03:38:04Z
2022-07-03T01:39:22Z,42.805,6.029,13.3020,4.60080,2470.646,2022-7-03T03:41:07Z
2022-07-03T01:42:25Z,42.805,6.029,13.3023,4.60064,2470.624,2022-7-03T03:44:10Z
2022-07-03T01:45:28Z,42.805,6.029,13.3031,4.60064,2470.591,2022-7-03T03:47:13Z
2022-07-03T01:48:31Z,42.805,6.029,13.3018,4.60054,2470.624,2022-7-03T03:50:16Z
2022-07-03T01:51:34Z,42.805,6.029,13.3029,4.60100,2470.624,2022-7-03T03:53:20Z
2022-07-03T01:54:38Z,42.805,6.029,13.3029,4.60064,2470.637,2022-7-03T03:56:23Z
2022-07-03T01:57:41Z,42.805,6.029,13.3026,4.60057,2470.6,2022-7-03T03:59:26Z
2022-07-03T02:00:44Z,42.805,6.029,13.3024,4.60067,2470.661,2022-7-03T04:02:29Z
2022-07-03T02:03:47Z,42.805,6.029,13.3026,4.60079,2470.6,2022-7-03T04:05:32Z
2022-07-03T02:06:50Z,42.805,6.029,13.3036,4.60072,2470.6,2022-7-03T04:08:35Z
2022-07-03T02:09:53Z,42.805,6.029,13.3025,4.60056,2470.6,2022-7-03T04:11:38Z
2022-07-03T02:12:56Z,42.805,6.029,13.3018,4.60069,2470.624,2022-7-03T04:14:41Z
2022-07-03T02:15:59Z,42.805,6.029,13.3031,4.60064,2470.6,2022-7-03T04:17:44Z
2022-07-03T02:19:02Z,42.805,6.029,13.3029,4.60069,2470.591,2022-7-03T04:20:48Z
2022-07-03T02:22:06Z,42.805,6.029,13.3018,4.60049,2470.553,2022-7-03T04:23:51Z
2022-07-03T02:25:09Z,42.805,6.029,13.3021,4.60080,2470.577,2022-7-03T04:26:54Z
2022-07-03T02:28:12Z,42.805,6.029,13.3019,4.60057,2470.577,2022-7-03T04:29:57Z
2022-07-03T02:31:15Z,42.805,6.029,13.3024,4.60054,2470.577,2022-7-03T04:33:00Z
2022-07-03T02:34:18Z,42.805,6.029,13.3026,4.60057,2470.577,2022-7-03T04:36:03Z
2022-07-03T02:37:21Z,42.805,6.029,13.3018,4.60079,2470.553,2022-7-03T04:39:06Z
2022-07-03T02:40:24Z,42.805,6.029,13.3021,4.60077,2470.553,2022-7-03T04:42:09Z
2022-07-03T02:43:27Z,42.805,6.029,13.3020,4.60090,2470.577,2022-7-03T04:45:13Z
2022-07-03T02:46:31Z,42.805,6.029,13.3022,4.60057,2470.577,2022-7-03T04:48:16Z
2022-07-03T02:49:34Z,42.805,6.029,13.3029,4.60061,2470.577,2022-7-03T04:51:19Z
2022-07-03T02:52:37Z,42.805,6.029,13.3021,4.60064,2470.577,2022-7-03T04:54:22Z
2022-07-03T02:55:40Z,42.805,6.029,13.3023,4.60068,2470.6,2022-7-03T04:57:25Z
2022-07-03T02:58:43Z,42.805,6.029,13.3029,4.60049,2470.577,2022-7-03T05:00:28Z
2022-07-03T03:01:46Z,42.805,6.029,13.3025,4.60062,2470.591,2022-7-03T05:03:31Z
2022-07-03T03:04:49Z,42.805,6.029,13.3022,4.60081,2470.53,2022-7-03T05:06:34Z
2022-07-03T03:07:52Z,42.805,6.029,13.3027,4.60044,2470.591,2022-7-03T05:09:37Z
2022-07-03T03:10:55Z,42.805,6.029,13.3028,4.60055,2470.553,2022-7-03T05:12:41Z
2022-07-03T03:13:59Z,42.805,6.029,13.3025,4.60057,2470.53,2022-7-03T05:15:44Z
2022-07-03T03:17:02Z,42.805,6.029,13.3013,4.60041,2470.6,2022-7-03T05:18:47Z
2022-07-03T03:20:05Z,42.805,6.029,13.3015,4.60054,2470.591,2022-7-03T05:21:50Z
2022-07-03T03:23:08Z,42.805,6.029,13.3021,4.60052,2470.553,2022-7-03T05:24:53Z
2022-07-03T03:26:11Z,42.805,6.029,13.3024,4.60067,2470.567,2022-7-03T05:27:56Z
2022-07-03T03:29:14Z,42.805,6.029,13.3018,4.60051,2470.577,2022-7-03T05:30:59Z
2022-07-03T03:32:17Z,42.805,6.029,13.3024,4.60059,2470.591,2022-7-03T05:34:02Z
2022-07-03T03:35:20Z,42.805,6.029,13.3021,4.60064,2470.577,2022-7-03T05:37:06Z
2022-07-03T03:38:24Z,42.805,6.029,13.3014,4.60052,2470.53,2022-7-03T05:40:09Z
2022-07-03T03:41:27Z,42.805,6.029,13.3023,4.60064,2470.577,2022-7-03T05:43:12Z
2022-07-03T03:44:30Z,42.805,6.029,13.3017,4.60055,2470.553,2022-7-03T05:46:15Z
2022-07-03T03:47:33Z,42.805,6.029,13.3007,4.60051,2470.553,2022-7-03T05:49:18Z
2022-07-03T03:50:36Z,42.805,6.029,13.3019,4.60043,2470.577,2022-7-03T05:52:21Z
2022-07-03T03:53:39Z,42.805,6.029,13.3014,4.60052,2470.53,2022-7-03T05:55:24Z
2022-07-03T03:56:42Z,42.805,6.029,13.3026,4.60069,2470.567,2022-7-03T05:58:27Z
2022-07-03T03:59:45Z,42.805,6.029,13.3024,4.60065,2470.553,2022-7-03T06:01:30Z
2022-07-03T04:02:48Z,42.805,6.029,13.3021,4.60050,2470.577,2022-7-03T06:04:34Z
2022-07-03T04:05:52Z,42.805,6.029,13.3016,4.60073,2470.553,2022-7-03T06:07:37Z
2022-07-03T04:08:55Z,42.805,6.029,13.3018,4.60064,2470.567,2022-7-03T06:10:40Z
2022-07-03T04:11:58Z,42.805,6.029,13.3021,4.60058,2470.553,2022-7-03T06:13:43Z
2022-07-03T04:15:01Z,42.805,6.029,13.3021,4.60058,2470.553,2022-7-03T06:16:46Z
2022-07-03T04:18:04Z,42.805,6.029,13.3027,4.60060,2470.516,2022-7-03T06:19:49Z
2022-07-03T04:21:07Z,42.805,6.029,13.3016,4.60053,2470.567,2022-7-03T06:22:52Z
2022-07-03T04:24:10Z,42.805,6.029,13.3021,4.60057,2470.577,2022-7-03T06:25:55Z
2022-07-03T04:27:13Z,42.805,6.029,13.3024,4.60057,2470.53,2022-7-03T06:28:59Z
2022-07-03T04:30:16Z,42.805,6.029,13.3015,4.60069,2470.507,2022-7-03T06:32:02Z
2022-07-03T04:33:20Z,42.805,6.029,13.3020,4.60069,2470.553,2022-7-03T06:35:05Z
2022-07-03T04:36:23Z,42.805,6.029,13.3028,4.60071,2470.553,2022-7-03T06:38:08Z
2022-07-03T04:39:26Z,42.805,6.029,13.3024,4.60066,2470.544,2022-7-03T06:41:11Z
2022-07-03T04:42:29Z,42.805,6.029,13.3025,4.60069,2470.577,2022-7-03T06:44:14Z
2022-07-03T04:45:32Z,42.805,6.029,13.3019,4.60074,2470.53,2022-7-03T06:47:17Z
2022-07-03T04:48:35Z,42.805,6.029,13.3024,4.60059,2470.53,2022-7-03T06:50:20Z
2022-07-03T04:51:38Z,42.805,6.029,13.3024,4.60069,2470.553,2022-7-03T06:53:23Z
2022-07-03T04:54:41Z,42.805,6.029,13.3015,4.60054,2470.567,2022-7-03T06:56:27Z
2022-07-03T04:57:45Z,42.805,6.029,13.3014,4.60054,2470.544,2022-7-03T06:59:30Z
2022-07-03T05:00:48Z,42.805,6.029,13.3014,4.60073,2470.577,2022-7-03T07:02:33Z
2022-07-03T05:03:51Z,42.805,6.029,13.3019,4.60067,2470.577,2022-7-03T07:05:36Z
2022-07-03T05:06:54Z,42.805,6.029,13.3017,4.60077,2470.53,2022-7-03T07:08:39Z
2022-07-03T05:09:57Z,42.805,6.029,13.3023,4.60063,2470.553,2022-7-03T07:11:42Z
2022-07-03T05:13:00Z,42.805,6.029,13.3025,4.60057,2470.544,2022-7-03T07:14:45Z
2022-07-03T05:16:03Z,42.805,6.029,13.3024,4.60052,2470.53,2022-7-03T07:17:48Z
2022-07-03T05:19:06Z,42.805,6.029,13.3013,4.60059,2470.577,2022-7-03T07:20:51Z
2022-07-03T05:22:09Z,42.805,6.029,13.3029,4.60050,2470.553,2022-7-03T07:23:55Z
2022-07-03T05:25:13Z,42.805,6.029,13.3021,4.60056,2470.567,2022-7-03T07:26:58Z
2022-07-03T05:28:16Z,42.805,6.029,13.3021,4.60054,2470.591,2022-7-03T07:30:01Z
2022-07-03T05:31:19Z,42.805,6.029,13.3025,4.60058,2470.553,2022-7-03T07:33:04Z
2022-07-03T05:34:22Z,42.805,6.029,13.3021,4.60070,2470.53,2022-7-03T07:36:07Z
2022-07-03T05:37:25Z,42.805,6.029,13.3023,4.60074,2470.53,2022-7-03T07:39:10Z
2022-07-03T05:40:28Z,42.805,6.029,13.3018,4.60049,2470.577,2022-7-03T07:42:13Z
2022-07-03T05:43:31Z,42.805,6.029,13.3015,4.60049,2470.553,2022-7-03T07:45:16Z
2022-07-03T05:46:34Z,42.805,6.029,13.3021,4.60066,2470.577,2022-7-03T07:48:20Z
2022-07-03T05:49:38Z,42.805,6.029,13.3019,4.60052,2470.577,2022-7-03T07:51:23Z
2022-07-03T05:52:41Z,42.805,6.029,13.3021,4.60061,2470.591,2022-7-03T07:54:26Z
2022-07-03T05:55:44Z,42.805,6.029,13.3031,4.60067,2470.553,2022-7-03T07:57:29Z
2022-07-03T05:58:47Z,42.805,6.029,13.3026,4.60052,2470.567,2022-7-03T08:00:32Z
2022-07-03T06:01:50Z,42.805,6.029,13.3018,4.60077,2470.577,2022-7-03T08:03:35Z
2022-07-03T06:04:53Z,42.805,6.029,13.3017,4.60074,2470.553,2022-7-03T08:06:38Z
2022-07-03T06:07:56Z,42.805,6.029,13.3016,4.60064,2470.577,2022-7-03T08:09:41Z
2022-07-03T06:10:59Z,42.805,6.029,13.3014,4.60062,2470.577,2022-7-03T08:12:44Z
2022-07-03T06:14:02Z,42.805,6.029,13.3019,4.60069,2470.591,2022-7-03T08:15:48Z
2022-07-03T06:17:06Z,42.805,6.029,13.3021,4.60066,2470.567,2022-7-03T08:18:51Z
2022-07-03T06:20:09Z,42.805,6.029,13.3015,4.60092,2470.553,2022-7-03T08:21:54Z
2022-07-03T06:23:12Z,42.805,6.029,13.3011,4.60067,2470.577,2022-7-03T08:24:57Z
2022-07-03T06:26:15Z,42.805,6.029,13.3016,4.60074,2470.577,2022-7-03T08:28:00Z
2022-07-03T06:29:18Z,42.805,6.029,13.3033,4.60067,2470.577,2022-7-03T08:31:03Z
2022-07-03T06:32:21Z,42.805,6.029,13.3029,4.60080,2470.539,2022-7-03T08:34:06Z
2022-07-03T06:35:24Z,42.805,6.029,13.3026,4.60089,2470.577,2022-7-03T08:37:09Z
2022-07-03T06:38:27Z,42.805,6.029,13.3017,4.60081,2470.563,2022-7-03T08:40:12Z
2022-07-03T06:41:30Z,42.805,6.029,13.3017,4.60068,2470.553,2022-7-03T08:43:16Z
2022-07-03T06:44:34Z,42.805,6.029,13.3028,4.60072,2470.577,2022-7-03T08:46:19Z
2022-07-03T06:47:37Z,42.805,6.029,13.3017,4.60072,2470.6,2022-7-03T08:49:22Z
2022-07-03T06:50:40Z,42.805,6.029,13.3017,4.60070,2470.591,2022-7-03T08:52:25Z
2022-07-03T06:53:43Z,42.805,6.029,13.3044,4.60088,2470.624,2022-7-03T08:55:28Z
2022-07-03T06:56:46Z,42.805,6.029,13.3018,4.60074,2470.577,2022-7-03T08:58:31Z
2022-07-03T06:59:49Z,42.805,6.029,13.3025,4.60067,2470.6,2022-7-03T09:01:34Z
2022-07-03T07:02:52Z,42.805,6.029,13.3017,4.60069,2470.6,2022-7-03T09:04:37Z
2022-07-03T07:05:55Z,42.805,6.029,13.3026,4.60062,2470.577,2022-7-03T09:07:41Z
2022-07-03T07:08:59Z,42.805,6.029,13.3024,4.60055,2470.577,2022-7-03T09:10:44Z
2022-07-03T07:12:02Z,42.805,6.029,13.3014,4.60070,2470.567,2022-7-03T09:13:47Z
2022-07-03T07:15:05Z,42.805,6.029,13.3029,4.60064,2470.624,2022-7-03T09:16:50Z
2022-07-03T07:18:08Z,42.805,6.029,13.3022,4.60059,2470.6,2022-7-03T09:19:53Z
2022-07-03T07:21:11Z,42.805,6.029,13.3024,4.60062,2470.591,2022-7-03T09:22:56Z
2022-07-03T07:24:14Z,42.805,6.029,13.3028,4.60089,2470.6,2022-7-03T09:25:59Z
2022-07-03T07:27:17Z,42.805,6.029,13.3021,4.60104,2470.624,2022-7-03T09:29:02Z
2022-07-03T07:30:20Z,42.805,6.029,13.3033,4.60054,2470.6,2022-7-03T09:32:05Z
2022-07-03T07:33:23Z,42.805,6.029,13.3020,4.60067,2470.624,2022-7-03T09:35:09Z
2022-07-03T07:36:27Z,42.805,6.029,13.3024,4.60077,2470.624,2022-7-03T09:38:12Z
2022-07-03T07:39:30Z,42.805,6.029,13.3027,4.60057,2470.6,2022-7-03T09:41:15Z
2022-07-03T07:42:33Z,42.805,6.029,13.3020,4.60074,2470.614,2022-7-03T09:44:18Z
2022-07-03T07:45:36Z,42.805,6.029,13.3026,4.60075,2470.624,2022-7-03T09:47:21Z
2022-07-03T07:48:39Z,42.805,6.029,13.3017,4.60067,2470.637,2022-7-03T09:50:24Z
2022-07-03T07:51:42Z,42.805,6.029,13.3029,4.60074,2470.637,2022-7-03T09:53:27Z
2022-07-03T07:54:45Z,42.805,6.029,13.3029,4.60088,2470.614,2022-7-03T09:56:30Z
2022-07-03T07:57:48Z,42.805,6.029,13.3026,4.60080,2470.637,2022-7-03T09:59:34Z
2022-07-03T08:00:52Z,42.805,6.029,13.3031,4.60091,2470.624,2022-7-03T10:02:37Z
2022-07-03T08:03:55Z,42.805,6.029,13.3014,4.60073,2470.624,2022-7-03T10:05:40Z
2022-07-03T08:06:58Z,42.805,6.029,13.3026,4.60051,2470.614,2022-7-03T10:08:43Z
2022-07-03T08:10:01Z,42.805,6.029,13.3017,4.60067,2470.637,2022-7-03T10:11:46Z
2022-07-03T08:13:04Z,42.805,6.029,13.3017,4.60088,2470.624,2022-7-03T10:14:49Z
2022-07-03T08:16:07Z,42.805,6.029,13.3029,4.60085,2470.624,2022-7-03T10:17:52Z
2022-07-03T08:19:10Z,42.805,6.029,13.3024,4.60063,2470.614,2022-7-03T10:20:55Z
2022-07-03T08:22:13Z,42.805,6.029,13.3025,4.60058,2470.614,2022-7-03T10:23:58Z
2022-07-03T08:25:16Z,42.805,6.029,13.3025,4.60066,2470.661,2022-7-03T10:27:02Z
2022-07-03T08:28:20Z,42.805,6.029,13.3020,4.60060,2470.6,2022-7-03T10:30:05Z
2022-07-03T08:31:23Z,42.805,6.029,13.3029,4.60078,2470.661,2022-7-03T10:33:08Z
2022-07-03T08:34:26Z,42.805,6.029,13.3021,4.60066,2470.624,2022-7-03T10:36:11Z
2022-07-03T08:37:29Z,42.805,6.029,13.3012,4.60081,2470.624,2022-7-03T10:39:14Z
2022-07-03T08:40:32Z,42.805,6.029,13.3030,4.60078,2470.646,2022-7-03T10:42:17Z
2022-07-03T08:43:35Z,42.805,6.029,13.3029,4.60070,2470.624,2022-7-03T10:45:20Z
2022-07-03T08:46:38Z,42.805,6.029,13.3022,4.60062,2470.637,2022-7-03T10:48:23Z
2022-07-03T08:49:41Z,42.805,6.029,13.3017,4.60069,2470.624,2022-7-03T10:51:27Z
2022-07-03T08:52:45Z,42.805,6.029,13.3034,4.60079,2470.624,2022-7-03T10:54:30Z
2022-07-03T08:55:48Z,42.805,6.029,13.3021,4.60077,2470.61,2022-7-03T10:57:33Z
2022-07-03T08:58:51Z,42.805,6.029,13.3022,4.60087,2470.661,2022-7-03T11:00:36Z
2022-07-03T09:01:54Z,42.805,6.029,13.3020,4.60099,2470.624,2022-7-03T11:03:39Z
2022-07-03T09:04:57Z,42.805,6.029,13.3025,4.60066,2470.624,2022-7-03T11:06:42Z
2022-07-03T09:08:00Z,42.805,6.029,13.3034,4.60074,2470.614,2022-7-03T11:09:45Z
2022-07-03T09:11:03Z,42.805,6.029,13.3019,4.60060,2470.614,2022-7-03T11:12:48Z
2022-07-03T09:14:06Z,42.805,6.029,13.3028,4.60062,2470.614,2022-7-03T11:15:52Z
2022-07-03T09:17:10Z,42.805,6.029,13.3022,4.60060,2470.646,2022-7-03T11:18:55Z
2022-07-03T09:20:13Z,42.805,6.029,13.3027,4.60066,2470.624,2022-7-03T11:21:58Z
2022-07-03T09:23:16Z,42.805,6.029,13.3030,4.60067,2470.646,2022-7-03T11:25:01Z
2022-07-03T09:26:19Z,42.805,6.029,13.3029,4.60066,2470.624,2022-7-03T11:28:04Z
2022-07-03T09:29:22Z,42.805,6.029,13.3034,4.60061,2470.661,2022-7-03T11:31:07Z
2022-07-03T09:32:25Z,42.805,6.029,13.3021,4.60073,2470.624,2022-7-03T11:34:10Z
2022-07-03T09:35:28Z,42.805,6.029,13.3028,4.60064,2470.624,2022-7-03T11:37:13Z
2022-07-03T09:38:31Z,42.805,6.029,13.3029,4.60078,2470.646,2022-7-03T11:40:17Z
2022-07-03T09:41:35Z,42.805,6.029,13.3021,4.60074,2470.646,2022-7-03T11:43:20Z
2022-07-03T09:44:38Z,42.805,6.029,13.3019,4.60081,2470.61,2022-7-03T11:46:23Z
2022-07-03T09:47:41Z,42.805,6.029,13.3024,4.60060,2470.684,2022-7-03T11:49:26Z
2022-07-03T09:50:44Z,42.805,6.029,13.3016,4.60087,2470.6,2022-7-03T11:52:29Z
2022-07-03T09:53:47Z,42.805,6.029,13.3024,4.60077,2470.661,2022-7-03T11:55:32Z
2022-07-03T09:56:50Z,42.805,6.029,13.3021,4.60070,2470.6,2022-7-03T11:58:35Z
2022-07-03T09:59:53Z,42.805,6.029,13.3020,4.60061,2470.577,2022-7-03T12:01:38Z
2022-07-03T10:02:56Z,42.805,6.029,13.3010,4.60081,2470.6,2022-7-03T12:04:41Z
2022-07-03T10:05:59Z,42.805,6.029,13.3024,4.60077,2470.624,2022-7-03T12:07:45Z
2022-07-03T10:09:03Z,42.805,6.029,13.3022,4.60086,2470.646,2022-7-03T12:10:48Z
2022-07-03T10:12:06Z,42.805,6.029,13.3024,4.60094,2470.624,2022-7-03T12:13:51Z
2022-07-03T10:15:09Z,42.805,6.029,13.3038,4.60089,2470.624,2022-7-03T12:16:54Z
2022-07-03T10:18:12Z,42.805,6.029,13.3022,4.60061,2470.637,2022-7-03T12:19:57Z
2022-07-03T10:21:15Z,42.805,6.029,13.3023,4.60061,2470.67,2022-7-03T12:23:00Z
2022-07-03T10:24:18Z,42.805,6.029,13.3032,4.60063,2470.624,2022-7-03T12:26:03Z
2022-07-03T10:27:21Z,42.805,6.029,13.3019,4.60078,2470.6,2022-7-03T12:29:06Z
2022-07-03T10:30:24Z,42.805,6.029,13.3017,4.60074,2470.637,2022-7-03T12:32:10Z
2022-07-03T10:33:28Z,42.805,6.029,13.3015,4.60077,2470.661,2022-7-03T12:35:13Z
2022-07-03T10:36:31Z,42.805,6.029,13.3025,4.60058,2470.6,2022-7-03T12:38:16Z
2022-07-03T10:39:34Z,42.805,6.029,13.3025,4.60060,2470.637,2022-7-03T12:41:19Z
2022-07-03T10:42:37Z,42.805,6.029,13.3024,4.60061,2470.624,2022-7-03T12:44:22Z
2022-07-03T10:45:40Z,42.805,6.029,13.3018,4.60078,2470.624,2022-7-03T12:47:25Z
2022-07-03T10:48:43Z,42.805,6.029,13.3025,4.60064,2470.624,2022-7-03T12:50:28Z
2022-07-03T10:51:46Z,42.805,6.029,13.3025,4.60069,2470.624,2022-7-03T12:53:31Z
2022-07-03T10:54:49Z,42.805,6.029,13.3024,4.60059,2470.637,2022-7-03T12:56:35Z
2022-07-03T10:57:53Z,42.805,6.029,13.3028,4.60077,2470.624,2022-7-03T12:59:38Z
2022-07-03T11:00:56Z,42.805,6.029,13.3013,4.60052,2470.624,2022-7-03T13:02:41Z
2022-07-03T11:03:59Z,42.805,6.029,13.3012,4.60044,2470.577,2022-7-03T13:05:44Z
2022-07-03T11:07:02Z,42.805,6.029,13.3019,4.60055,2470.6,2022-7-03T13:08:47Z
2022-07-03T11:10:05Z,42.805,6.029,13.3015,4.60056,2470.6,2022-7-03T13:11:50Z
2022-07-03T11:13:08Z,42.805,6.029,13.3024,4.60062,2470.6,2022-7-03T13:14:53Z
2022-07-03T11:16:11Z,42.805,6.029,13.3022,4.60057,2470.614,2022-7-03T13:17:56Z
2022-07-03T11:19:14Z,42.805,6.029,13.3025,4.60052,2470.591,2022-7-03T13:21:00Z
2022-07-03T11:22:18Z,42.805,6.029,13.3019,4.60057,2470.6,2022-7-03T13:24:03Z
2022-07-03T11:25:21Z,42.805,6.029,13.3021,4.60060,2470.577,2022-7-03T13:27:06Z
2022-07-03T11:28:24Z,42.805,6.029,13.3020,4.60084,2470.577,2022-7-03T13:30:09Z
2022-07-03T11:31:27Z,42.805,6.029,13.3028,4.60074,2470.6,2022-7-03T13:33:12Z
2022-07-03T11:34:30Z,42.805,6.029,13.3022,4.60082,2470.624,2022-7-03T13:36:15Z
2022-07-03T11:37:33Z,42.805,6.029,13.3013,4.60072,2470.6,2022-7-03T13:39:18Z
2022-07-03T11:40:36Z,42.805,6.029,13.3023,4.60057,2470.614,2022-7-03T13:42:21Z
2022-07-03T11:43:39Z,42.805,6.029,13.3019,4.60072,2470.637,2022-7-03T13:45:25Z
2022-07-03T11:46:43Z,42.805,6.029,13.3017,4.60059,2470.614,2022-7-03T13:48:28Z
2022-07-03T11:49:46Z,42.805,6.029,13.3024,4.60087,2470.577,2022-7-03T13:51:31Z
2022-07-03T11:52:49Z,42.805,6.029,13.3024,4.60046,2470.6,2022-7-03T13:54:34Z
2022-07-03T11:55:52Z,42.805,6.029,13.3019,4.60068,2470.6,2022-7-03T13:57:37Z
2022-07-03T11:58:55Z,42.805,6.029,13.3011,4.60049,2470.6,2022-7-03T14:00:40Z
2022-07-03T12:01:58Z,42.805,6.029,13.3029,4.60059,2470.6,2022-7-03T14:03:43Z
2022-07-03T12:05:01Z,42.805,6.029,13.3021,4.60067,2470.637,2022-7-03T14:06:46Z
2022-07-03T12:08:04Z,42.805,6.029,13.3024,4.60061,2470.6,2022-7-03T14:09:50Z
2022-07-03T12:11:07Z,42.805,6.029,13.3011,4.60038,2470.577,2022-7-03T14:12:53Z
2022-07-03T12:14:11Z,42.805,6.029,13.3023,4.60049,2470.6,2022-7-03T14:15:56Z
2022-07-03T12:17:14Z,42.805,6.029,13.3015,4.60059,2470.577,2022-7-03T14:18:59Z
2022-07-03T12:20:17Z,42.805,6.029,13.3021,4.60046,2470.577,2022-7-03T14:22:02Z
2022-07-03T12:23:20Z,42.805,6.029,13.3017,4.60051,2470.553,2022-7-03T14:25:05Z
2022-07-03T12:26:23Z,42.805,6.029,13.3020,4.60057,2470.577,2022-7-03T14:28:08Z
2022-07-03T12:29:26Z,42.805,6.029,13.3006,4.60039,2470.553,2022-7-03T14:31:11Z
2022-07-03T12:32:29Z,42.805,6.029,13.3006,4.60042,2470.553,2022-7-03T14:34:14Z
2022-07-03T12:35:32Z,42.805,6.029,13.3022,4.60051,2470.553,2022-7-03T14:37:18Z
2022-07-03T12:38:36Z,42.805,6.029,13.3016,4.60044,2470.577,2022-7-03T14:40:21Z
2022-07-03T12:41:39Z,42.805,6.029,13.3010,4.60054,2470.591,2022-7-03T14:43:24Z
2022-07-03T12:44:42Z,42.805,6.029,13.3015,4.60052,2470.6,2022-7-03T14:46:27Z
2022-07-03T12:47:45Z,42.805,6.029,13.3016,4.60055,2470.553,2022-7-03T14:49:30Z
2022-07-03T12:50:48Z,42.805,6.029,13.3026,4.60053,2470.507,2022-7-03T14:52:33Z
2022-07-03T12:53:51Z,42.805,6.029,13.3019,4.60068,2470.544,2022-7-03T14:55:36Z
2022-07-03T12:56:54Z,42.805,6.029,13.3022,4.60060,2470.553,2022-7-03T14:58:39Z
2022-07-03T12:59:57Z,42.805,6.029,13.3024,4.60061,2470.553,2022-7-03T15:01:43Z
2022-07-03T13:03:01Z,42.805,6.029,13.3019,4.60054,2470.553,2022-7-03T15:04:46Z
2022-07-03T13:06:04Z,42.805,6.029,13.3006,4.60038,2470.53,2022-7-03T15:07:49Z
2022-07-03T13:09:07Z,42.805,6.029,13.3013,4.60054,2470.567,2022-7-03T15:10:52Z
2022-07-03T13:12:10Z,42.805,6.029,13.3011,4.60041,2470.553,2022-7-03T15:13:55Z
2022-07-03T13:15:13Z,42.805,6.029,13.3024,4.60054,2470.544,2022-7-03T15:16:58Z
2022-07-03T13:18:16Z,42.805,6.029,13.3016,4.60053,2470.567,2022-7-03T15:20:01Z
2022-07-03T13:21:19Z,42.805,6.029,13.3015,4.60063,2470.544,2022-7-03T15:23:04Z
2022-07-03T13:24:22Z,42.805,6.029,13.3014,4.60048,2470.553,2022-7-03T15:26:08Z
2022-07-03T13:27:25Z,42.805,6.029,13.3014,4.60052,2470.53,2022-7-03T15:29:11Z
2022-07-03T13:30:29Z,42.805,6.029,13.3016,4.60046,2470.52,2022-7-03T15:32:14Z
2022-07-03T13:33:32Z,42.805,6.029,13.3023,4.60045,2470.52,2022-7-03T15:35:17Z
2022-07-03T13:36:35Z,42.805,6.029,13.3007,4.60037,2470.507,2022-7-03T15:38:20Z
2022-07-03T13:39:38Z,42.805,6.029,13.3019,4.60051,2470.53,2022-7-03T15:41:23Z
2022-07-03T13:42:41Z,42.805,6.029,13.3019,4.60049,2470.52,2022-7-03T15:44:26Z
2022-07-03T13:45:44Z,42.805,6.029,13.3022,4.60052,2470.52,2022-7-03T15:47:29Z
2022-07-03T13:48:47Z,42.805,6.029,13.3011,4.60038,2470.553,2022-7-03T15:50:33Z
2022-07-03T13:51:50Z,42.805,6.029,13.3018,4.60052,2470.567,2022-7-03T15:53:36Z
2022-07-03T13:54:54Z,42.805,6.029,13.3014,4.60045,2470.567,2022-7-03T15:56:39Z
2022-07-03T13:57:57Z,42.805,6.029,13.3008,4.60039,2470.53,2022-7-03T15:59:42Z
2022-07-03T14:01:00Z,42.805,6.029,13.3010,4.60043,2470.52,2022-7-03T16:02:45Z
2022-07-03T14:04:03Z,42.805,6.029,13.3006,4.60035,2470.507,2022-7-03T16:05:48Z
2022-07-03T14:07:06Z,42.805,6.029,13.3008,4.60039,2470.507,2022-7-03T16:08:51Z
2022-07-03T14:10:09Z,42.805,6.029,13.3009,4.60036,2470.52,2022-7-03T16:11:54Z
2022-07-03T14:13:12Z,42.805,6.029,13.3023,4.60060,2470.53,2022-7-03T16:14:57Z
2022-07-03T14:16:15Z,42.805,6.029,13.3015,4.60054,2470.553,2022-7-03T16:18:01Z
2022-07-03T14:19:19Z,42.805,6.029,13.3019,4.60056,2470.53,2022-7-03T16:21:04Z
2022-07-03T14:22:22Z,42.805,6.029,13.3006,4.60036,2470.567,2022-7-03T16:24:07Z
2022-07-03T14:25:25Z,42.805,6.029,13.3006,4.60036,2470.507,2022-7-03T16:27:10Z
2022-07-03T14:28:28Z,42.805,6.029,13.3006,4.60036,2470.483,2022-7-03T16:30:13Z
2022-07-03T14:31:31Z,42.805,6.029,13.3006,4.60036,2470.53,2022-7-03T16:33:16Z
2022-07-03T14:34:34Z,42.805,6.029,13.3009,4.60045,2470.507,2022-7-03T16:36:19Z
2022-07-03T14:37:37Z,42.805,6.029,13.3006,4.60036,2470.483,2022-7-03T16:39:22Z
2022-07-03T14:40:40Z,42.805,6.029,13.3004,4.60036,2470.53,2022-7-03T16:42:26Z
2022-07-03T14:43:44Z,42.805,6.029,13.3005,4.60034,2470.52,2022-7-03T16:45:29Z
2022-07-03T14:46:47Z,42.805,6.029,13.3009,4.60035,2470.497,2022-7-03T16:48:32Z
2022-07-03T14:49:50Z,42.805,6.029,13.3006,4.60040,2470.507,2022-7-03T16:51:35Z
2022-07-03T14:52:53Z,42.805,6.029,13.3004,4.60034,2470.567,2022-7-03T16:54:38Z
2022-07-03T14:55:56Z,42.805,6.029,13.3008,4.60035,2470.483,2022-7-03T16:57:41Z
2022-07-03T14:58:59Z,42.805,6.029,13.3004,4.60035,2470.46,2022-7-03T17:00:44Z
2022-07-03T15:02:02Z,42.805,6.029,13.3009,4.60044,2470.507,2022-7-03T17:03:47Z
2022-07-03T15:05:05Z,42.805,6.029,13.3004,4.60036,2470.53,2022-7-03T17:06:50Z
2022-07-03T15:08:08Z,42.805,6.029,13.3011,4.60044,2470.483,2022-7-03T17:09:54Z
2022-07-03T15:11:12Z,42.805,6.029,13.3009,4.60035,2470.507,2022-7-03T17:12:57Z
2022-07-03T15:14:15Z,42.805,6.029,13.3006,4.60041,2470.53,2022-7-03T17:16:00Z